Flight Track Log - Related Links

Times and Time Zones

All times are in EDT time to prevent confusion due to time zone crossing. See the EJA122 flight status page for this flight to view local times or setup timezone preferences in your user account.

Time Position Orientation Groundspeed Altitude Reporting Facility
EDT Latitude Longitude Course Direction KTS MPH feet Rate Location/Type
Fri 08:29:29 AM 39.0167 -77.4500 360° North 215 247 4,300  Level Potomac TRACON
Fri 08:30:30 AM 39.0833 -77.4500 360° North 261 300 6,800 2,678 Climbing Potomac TRACON
Fri 08:31:30 AM 39.1500 -77.4667 349° North 279 321 9,700 1,944 Climbing Potomac TRACON
Fri 08:33:29 AM 39.3006 -77.5092 348° North 284 327 12,600 1,525 Climbing Washington Center
Fri 08:34:27 AM 39.3917 -77.5411 345° North 303 349 14,200 1,576 Climbing Washington Center
Fri 08:35:27 AM 39.4828 -77.5758 344° North 326 375 15,700 1,438 Climbing Washington Center
Fri 08:36:28 AM 39.5481 -77.6611 315° West 326 375 17,100 1,240 Climbing Washington Center
Fri 08:38:55 AM 39.7169 -77.9139 311° West 356 410 20,000 841 Climbing Cleveland Center
Fri 08:39:55 AM 39.7861 -78.0192 311° West 369 425 20,000  Level Cleveland Center
Fri 08:40:55 AM 39.8572 -78.1275 311° West 385 443 20,000  Level Cleveland Center
Fri 08:41:55 AM 39.9325 -78.2358 312° West 396 456 20,000  Level Cleveland Center
Fri 08:42:55 AM 39.9908 -78.3339 308° West 391 450 20,000  Level Cleveland Center
Fri 08:43:55 AM 40.0636 -78.4428 311° West 391 450 20,000  Level Cleveland Center
Fri 08:44:55 AM 40.1344 -78.5544 310° West 391 450 20,000  Level Cleveland Center
Fri 08:45:55 AM 40.2072 -78.6639 311° West 396 456 20,000  Level Cleveland Center
Fri 08:46:55 AM 40.2800 -78.7761 310° West 396 456 20,000  Level Cleveland Center
Fri 08:47:55 AM 40.3608 -78.8775 316° Northwest 396 456 20,000 -950 Level Cleveland Center
Fri 08:48:55 AM 40.4517 -78.9625 325° Northwest 401 461 18,100 -1,900 Descending Cleveland Center
Fri 08:49:55 AM 40.5383 -79.0478 323° Northwest 396 456 16,200 -2,050 Descending Cleveland Center
Fri 08:50:55 AM 40.6250 -79.1250 326° Northwest 389 448 14,000 -2,200 Descending Cleveland Center
Fri 08:51:55 AM 40.7031 -79.2000 324° Northwest 369 425 11,800 -2,150 Descending Cleveland Center
Fri 08:52:55 AM 40.7706 -79.2672 323° Northwest 335 386 9,700 -1,900 Descending Cleveland Center
Fri 08:53:55 AM 40.8317 -79.3264 324° Northwest 298 343 8,000 -850 Descending Cleveland Center
Fri 08:54:55 AM 40.8906 -79.3856 323° Northwest 278 320 8,000  Level Cleveland Center
Fri 08:55:55 AM 40.9536 -79.4450 325° Northwest 273 314 8,000  Level Cleveland Center
Fri 08:56:55 AM 41.0147 -79.5044 324° Northwest 278 320 8,000 -550 Level Cleveland Center
Fri 08:57:55 AM 41.0758 -79.5639 324° Northwest 278 320 6,900 -1,450 Descending Cleveland Center
Fri 08:58:55 AM 41.1306 -79.6183 323° Northwest 267 307 5,100 -1,450 Descending Cleveland Center
Fri 08:59:55 AM 41.1850 -79.6725 323° Northwest 256 295 4,000 -600 Descending Cleveland Center
Fri 09:00:55 AM 41.2439 -79.7297 324° Northwest 256 295 3,900 -50 Descending Cleveland Center
Fri 09:01:55 AM 41.2922 -79.7761 324° Northwest 239 275 3,900 -450 Level Cleveland Center
Fri 09:02:55 AM 41.3361 -79.8172 325° Northwest 211 243 3,000 -500 Descending Cleveland Center
Fri 09:03:55 AM 41.3781 -79.8525 328° Northwest 194 223 2,900 -100 Descending Cleveland Center
Fri 09:04:55 AM 41.3908 -79.8994 290° West 174 200 2,800 50 Descending Cleveland Center
Fri 09:05:55 AM 41.3453 -79.9167 196° South 106 122 3,000 200 Climbing Cleveland Center
Fri 09:07:00 AM 41.3667 -79.8500 56° Northeast  Level FlightAware Approximate
Fri 09:14:00 AM 41.3774 -79.8606 56° Northeast  Level Estimated

Login

Don't have an account? Register now (free) for customized features, flight alerts, and more!